Rugby, ND

5:24 AM CDT on July 23, 2017 (GMT -0500)
Rugby Municipal

Weather History for KRUG - April, 2013

Change the Weather History Date:

Thursday, April 11, 2013

  Actual Average Record
Temperature  
Mean Temperature 24 °F -  
Max Temperature 28 °F 51 °F 82 °F (1968)
Min Temperature 21 °F 28 °F 5 °F (1957)
Degree Days  
Heating Degree Days 40    
Moisture  
Dew Point 21 °F    
Average Humidity 81    
Maximum Humidity 100    
Minimum Humidity 68    
Precipitation  
Precipitation 0.23 in - - ()
Sea Level Pressure  
Sea Level Pressure 29.95 in    
Wind  
Wind Speed 12 mph (ENE)    
Max Wind Speed 18 mph    
Max Gust Speed -    
Visibility 9 miles    
Events Snow    
Averages and records for this station are not official NWS values.
T = Trace of Precipitation, MM = Missing Value Source: NWS Daily Summary

Daily Weather History Graph

Daily Weather History Graph

Search for Another Location

Airport or City:

Trip Planner

Search our weather history database for the weather conditions in past years. The results will help you decide how hot, cold, wet, or windy it might be!

Date:

Astronomy

Apr. 11, 2013 Rise Set
Actual Time 6:57 AM CDT 8:25 PM CDT
Civil Twilight 6:24 AM CDT 8:58 PM CDT
Nautical Twilight 5:45 AM CDT 9:38 PM CDT
Astronomical Twilight 5:02 AM CDT 10:21 PM CDT
Moon 7:23 AM CDT (4/11) 10:11 PM CDT (4/11)
Length of Visible Light 14h 33m
Length of Day
13h 28m
New Moon, 2% of the Moon is Illuminated
Apr 11
New Moon
Apr 18
First Quarter
Apr 25
Full
May 2
Last Quarter
May 9
New

Hourly Weather History & Observations

Time (CDT) Temp. Windchill Dew Point Humidity Pressure Visibility Wind Dir Wind Speed Gust Speed Precip Events Conditions
12:15 AM 21.2 °F 10.1 °F 15.8 °F 80% 30.08 in 10.0 mi East 10.4 mph - N/A   Overcast
12:35 AM 21.2 °F 10.1 °F 15.8 °F 80% 30.07 in 10.0 mi ENE 10.4 mph - N/A   Overcast
12:55 AM 21.2 °F 10.9 °F 15.8 °F 80% 30.06 in 10.0 mi ENE 9.2 mph - N/A   Overcast
1:15 AM 23.0 °F 11.7 °F 17.6 °F 80% 30.06 in 10.0 mi ENE 11.5 mph - N/A   Overcast
1:35 AM 23.0 °F 11.7 °F 15.8 °F 74% 30.05 in 10.0 mi ENE 11.5 mph - N/A   Overcast
1:55 AM 23.0 °F 10.6 °F 15.8 °F 74% 30.04 in 10.0 mi East 13.8 mph - N/A   Overcast
2:15 AM 23.0 °F 10.6 °F 15.8 °F 74% 30.04 in 10.0 mi East 13.8 mph - N/A   Overcast
2:35 AM 23.0 °F 10.6 °F 14.0 °F 68% 30.03 in 10.0 mi East 13.8 mph - N/A   Overcast
2:55 AM 23.0 °F 10.1 °F 14.0 °F 68% 30.02 in 10.0 mi East 15.0 mph - N/A   Overcast
3:15 AM 23.0 °F 10.1 °F 14.0 °F 68% 30.00 in 10.0 mi East 15.0 mph - N/A   Overcast
3:35 AM 23.0 °F 11.1 °F 14.0 °F 68% 29.98 in 10.0 mi East 12.7 mph - N/A   Mostly Cloudy
3:55 AM 23.0 °F 11.1 °F 15.8 °F 74% 29.97 in 10.0 mi East 12.7 mph - N/A   Mostly Cloudy
4:15 AM 23.0 °F 12.4 °F 15.8 °F 74% 29.97 in 10.0 mi East 10.4 mph - N/A   Scattered Clouds
4:35 AM 23.0 °F 11.7 °F 17.6 °F 80% 29.96 in 10.0 mi East 11.5 mph - N/A   Scattered Clouds
4:55 AM 23.0 °F 11.1 °F 17.6 °F 80% 29.96 in 10.0 mi East 12.7 mph - N/A   Scattered Clouds
5:15 AM 23.0 °F 11.7 °F 17.6 °F 80% 29.95 in 10.0 mi East 11.5 mph - N/A   Partly Cloudy
5:35 AM 23.0 °F 11.7 °F 17.6 °F 80% 29.95 in 10.0 mi East 11.5 mph - N/A   Scattered Clouds
5:55 AM 24.8 °F 14.0 °F 17.6 °F 74% 29.94 in 10.0 mi East 11.5 mph - N/A   Mostly Cloudy
6:15 AM 24.8 °F 14.6 °F 19.4 °F 80% 29.94 in 10.0 mi East 10.4 mph - N/A   Scattered Clouds
6:35 AM 24.8 °F 14.6 °F 19.4 °F 80% 29.93 in 10.0 mi East 10.4 mph - N/A   Mostly Cloudy
6:55 AM 24.8 °F 14.0 °F 19.4 °F 80% 29.93 in 10.0 mi East 11.5 mph - N/A   Mostly Cloudy
7:15 AM 24.8 °F 15.3 °F 19.4 °F 80% 29.93 in 10.0 mi East 9.2 mph - N/A   Partly Cloudy
7:35 AM 24.8 °F 15.3 °F 19.4 °F 80% 29.93 in 10.0 mi East 9.2 mph - N/A   Clear
7:55 AM 24.8 °F 15.3 °F 19.4 °F 80% 29.94 in 10.0 mi East 9.2 mph - N/A   Clear
8:15 AM 24.8 °F 16.9 °F 19.4 °F 80% 29.93 in 10.0 mi ENE 6.9 mph - N/A   Clear
8:35 AM 24.8 °F 16.1 °F 19.4 °F 80% 29.93 in 10.0 mi NE 8.1 mph - N/A   Scattered Clouds
8:55 AM 26.6 °F 19.1 °F 19.4 °F 74% 29.94 in 10.0 mi NE 6.9 mph - N/A   Overcast
9:15 AM 24.8 °F 12.9 °F 19.4 °F 80% 29.93 in 10.0 mi ENE 13.8 mph - N/A   Overcast
9:35 AM 24.8 °F 13.4 °F 19.4 °F 80% 29.93 in 10.0 mi ENE 12.7 mph - N/A   Overcast
9:55 AM 26.6 °F 16.2 °F 19.4 °F 74% 29.92 in 10.0 mi East 11.5 mph - N/A   Mostly Cloudy
10:15 AM 26.6 °F 15.7 °F 21.2 °F 80% 29.93 in 10.0 mi East 12.7 mph - N/A   Mostly Cloudy
10:35 AM 26.6 °F 16.2 °F 19.4 °F 74% 29.93 in 10.0 mi ENE 11.5 mph - N/A   Mostly Cloudy
10:55 AM 26.6 °F 15.2 °F 19.4 °F 74% 29.93 in 10.0 mi ENE 13.8 mph - N/A   Mostly Cloudy
11:15 AM 26.6 °F 14.3 °F 21.2 °F 80% 29.93 in 10.0 mi East 16.1 mph - N/A   Scattered Clouds
11:35 AM 28.4 °F 17.5 °F 21.2 °F 74% 29.94 in 10.0 mi ENE 13.8 mph - N/A   Scattered Clouds
12:15 PM 28.4 °F 17.5 °F 23.0 °F 80% 29.94 in 10.0 mi East 13.8 mph - N/A   Scattered Clouds
12:35 PM 28.4 °F 17.0 °F 21.2 °F 74% 29.94 in 10.0 mi East 15.0 mph - N/A   Scattered Clouds
12:55 PM 28.4 °F 18.5 °F 21.2 °F 74% 29.93 in 10.0 mi East 11.5 mph - N/A   Scattered Clouds
1:15 PM 28.4 °F 17.5 °F 23.0 °F 80% 29.93 in 10.0 mi ENE 13.8 mph - N/A   Scattered Clouds
1:35 PM 28.4 °F 18.0 °F 23.0 °F 80% 29.93 in 10.0 mi ENE 12.7 mph - N/A   Mostly Cloudy
1:55 PM 28.4 °F 18.5 °F 21.2 °F 74% 29.92 in 10.0 mi ENE 11.5 mph - N/A   Mostly Cloudy
2:15 PM 28.4 °F 17.0 °F 23.0 °F 80% 29.92 in 10.0 mi East 15.0 mph - N/A   Mostly Cloudy
2:35 PM 28.4 °F 17.0 °F 23.0 °F 80% 29.92 in 10.0 mi ENE 15.0 mph - N/A   Scattered Clouds
2:55 PM 28.4 °F 17.5 °F 23.0 °F 80% 29.92 in 10.0 mi ENE 13.8 mph - N/A   Partly Cloudy
3:15 PM 28.4 °F 17.0 °F 23.0 °F 80% 29.92 in 10.0 mi ENE 15.0 mph - N/A   Clear
3:35 PM 28.4 °F 17.0 °F 23.0 °F 80% 29.92 in 10.0 mi ENE 15.0 mph - N/A   Partly Cloudy
3:55 PM 28.4 °F 17.5 °F 23.0 °F 80% 29.92 in 10.0 mi ENE 13.8 mph - N/A   Clear
4:15 PM 28.4 °F 17.0 °F 23.0 °F 80% 29.92 in 10.0 mi ENE 15.0 mph - N/A   Clear
4:35 PM 28.4 °F 17.0 °F 23.0 °F 80% 29.92 in 10.0 mi ENE 15.0 mph - N/A   Clear
4:55 PM 28.4 °F 16.6 °F 23.0 °F 80% 29.92 in 10.0 mi ENE 16.1 mph - N/A   Clear
5:15 PM 28.4 °F 17.0 °F 23.0 °F 80% 29.92 in 10.0 mi ENE 15.0 mph - N/A   Clear
5:35 PM 28.4 °F 16.6 °F 23.0 °F 80% 29.92 in 10.0 mi ENE 16.1 mph - N/A   Clear
5:55 PM 28.4 °F 15.8 °F 23.0 °F 80% 29.92 in 10.0 mi East 18.4 mph - N/A   Partly Cloudy
6:15 PM 28.4 °F 15.8 °F 23.0 °F 80% 29.93 in 10.0 mi East 18.4 mph - N/A   Clear
6:35 PM 28.4 °F 17.5 °F 23.0 °F 80% 29.92 in 10.0 mi East 13.8 mph - N/A   Clear
6:55 PM 26.6 °F 13.4 °F 23.0 °F 86% 29.92 in 10.0 mi East 18.4 mph - N/A   Clear
7:15 PM 26.6 °F 14.7 °F 23.0 °F 86% 29.93 in 10.0 mi ENE 15.0 mph - N/A   Clear
7:35 PM 26.6 °F 14.3 °F 23.0 °F 86% 29.93 in 10.0 mi East 16.1 mph - N/A   Partly Cloudy
7:55 PM 26.6 °F 16.2 °F 23.0 °F 86% 29.93 in 10.0 mi East 11.5 mph - N/A   Partly Cloudy
8:15 PM 26.6 °F 14.3 °F 23.0 °F 86% 29.93 in 10.0 mi East 16.1 mph - N/A   Clear
8:35 PM 26.6 °F 14.7 °F 24.8 °F 93% 29.93 in 10.0 mi East 15.0 mph - N/A   Scattered Clouds
8:55 PM 26.6 °F 14.7 °F 24.8 °F 93% 29.94 in 7.0 mi East 15.0 mph - N/A   Mostly Cloudy
9:15 PM 26.6 °F 16.8 °F 24.8 °F 93% 29.95 in 8.0 mi East 10.4 mph - N/A   Mostly Cloudy
9:35 PM 24.8 °F 12.9 °F 24.8 °F 100% 29.95 in 1.2 mi East 13.8 mph - 0.05 in Snow Light Snow
9:55 PM 24.8 °F 13.4 °F 24.8 °F 100% 29.95 in 1.8 mi East 12.7 mph - 0.13 in Snow Light Snow
10:15 PM 24.8 °F 14.6 °F 24.8 °F 100% 29.95 in 2.0 mi East 10.4 mph - 0.04 in Snow Light Snow
10:35 PM 24.8 °F 15.3 °F 24.8 °F 100% 29.95 in 6.0 mi East 9.2 mph - 0.06 in Snow Light Snow
10:55 PM 24.8 °F 15.3 °F 24.8 °F 100% 29.95 in 3.0 mi East 9.2 mph - 0.08 in Snow Light Snow
11:15 PM 24.8 °F 15.3 °F 24.8 °F 100% 29.94 in 6.0 mi ENE 9.2 mph - N/A Snow Light Snow
11:35 PM 24.8 °F 16.9 °F 24.8 °F 100% 29.94 in 8.0 mi NE 6.9 mph - 0.01 in Snow Light Snow
11:55 PM 24.8 °F 16.9 °F 23.0 °F 93% 29.94 in 7.0 mi NE 6.9 mph - 0.02 in Snow Light Snow